User: anonymous   Login
Location: Unspecified
(0.0000°N, 0.0000°E)
Time: 13:50:04
(UTC+00:00)
Language:

AO-40 - Orbit

View from above orbital plane
View from above orbital plane
View from above satellite
View from above satellite

Ground track
Ground track

The orbit data is extracted from the following two-line orbital elements,

1 26609U 00072B   17110.54872880 -.00000165 +00000-0 +00000-0 0  9997
2 26609 006.2934 232.5123 7941012 106.6782 345.4640 01.25587490075628
Epoch (UTC): 20 April 2017 13:10:10
Eccentricity: 0.7941012
inclination: 6.2934°
perigee height: 1093 km
apogee height: 58727 km
right ascension of ascending node: 232.5123°
argument of perigee: 106.6782°
revolutions per day: 1.25587490
mean anomaly at epoch: 345.4640°
orbit number at epoch: 7562

The dashed part of the orbit path shows where the satellite is in the earth's shadow,  

DLR